Flag for Hungary Weather past 2 weeks in Budapest, Hungary

Now
68 °F

Clear.


Feels Like: 68 °F
Forecast: 63 / 87 °F
Wind: 8 mph from Northwest

Location: Ferenc Liszt International Airport

Current Time: Aug 1, 2014 at 6:25:25 AM

Latest Report: Aug 1, 2014 at 6:00 AM


Visibility: 10 mi

Pressure: 29.83 "Hg

Humidity: 94%

Dew point: 66 °F

Location of BudapestLocation

Historic Weather in Budapest — Graph

°F

Budapest temperature yesterday

Maximum temperature yesterday: 79 °F (at 3:00 PM)
Minimum temperature yesterday: 66 °F (at 2:30 AM)
Average temperature yesterday: 72 °F

Past Weeks' High & Low Weather Summary

 TemperatureHumidityPressure
High91 °F (Jul 21, 2:00 PM)100% (Jul 22, 1:30 PM)30.07 "Hg (Jul 22, 1:30 PM)
Low59 °F (Jul 24, 2:30 AM)31% (Jul 20, 4:30 PM)29.71 "Hg (Jul 21, 4:00 PM)
Average73 °F71%29.89 "Hg
* Reported Jul 17 5:00 AM — Aug 1 5:30 AM, Budapest, Weather by CustomWeather, © 2014

Note: Actual official high and low records may vary slightly from our data, if they occured in-between our weather recording intervals... More about our weather records

Advertising

Budapest weather history for previous 24 hours

 ConditionsComfort  
Time TempWeatherWind HumidityBarometerVisibility
5:30 AM
Aug 1
68 °FClear.8 mph94%29.83 "Hg10 mi
5:00 AM68 °FClear.6 mph94%29.86 "Hg10 mi
4:30 AM68 °FClear.7 mph94%29.86 "Hg10 mi
4:00 AM68 °FSprinkles. Partly cloudy.2 mph94%29.86 "HgN/A
3:30 AM68 °FSprinkles. Partly cloudy.2 mph94%29.86 "HgN/A
3:00 AM68 °FSprinkles. Partly cloudy.12 mph88%29.89 "HgN/A
2:30 AM70 °FPassing clouds.5 mph88%29.86 "HgN/A
2:00 AM70 °FClear.6 mph88%29.83 "Hg10 mi
1:30 AM70 °FClear.7 mph88%29.83 "Hg10 mi
1:00 AM68 °FPassing clouds.7 mph94%29.83 "HgN/A
12:30 AM70 °FPassing clouds.7 mph88%29.86 "HgN/A
12:00 AM70 °FPassing clouds.6 mph94%29.86 "HgN/A
11:30 PM
Jul 31
70 °FPassing clouds.5 mph88%29.83 "HgN/A
11:00 PM70 °FPassing clouds.5 mph88%29.83 "HgN/A
10:30 PM70 °FClear.2 mph88%29.83 "Hg10 mi
10:00 PM70 °FClear.1 mph88%29.86 "Hg10 mi
9:30 PM70 °FClear.3 mph94%29.83 "Hg10 mi
9:00 PM72 °FPassing clouds.5 mph88%29.83 "HgN/A
8:30 PM72 °FSunny.5 mph88%29.83 "Hg10 mi
8:00 PM75 °FSunny.3 mph74%29.83 "Hg10 mi
7:30 PM75 °FPartly sunny.3 mph74%29.83 "HgN/A
7:00 PM75 °FBroken clouds.6 mph74%29.83 "HgN/A
6:30 PM77 °FBroken clouds.7 mph69%29.83 "HgN/A
6:00 PM77 °FBroken clouds.7 mph69%29.80 "HgN/A
5:30 PM77 °FScattered clouds.8 mph69%29.80 "HgN/A
5:00 PM77 °FScattered clouds.7 mph69%29.80 "HgN/A
4:30 PM77 °FBroken clouds.9 mph65%29.80 "HgN/A
4:00 PM77 °FBroken clouds.9 mph65%29.80 "HgN/A
3:30 PM77 °FBroken clouds.7 mph65%29.80 "HgN/A
3:00 PM79 °FPartly sunny.6 mph61%29.83 "HgN/A
2:30 PM77 °FBroken clouds.5 mph69%29.83 "HgN/A
2:00 PM77 °FPartly sunny.7 mph65%29.83 "HgN/A
1:30 PM75 °FPartly sunny.7 mph65%29.86 "HgN/A
1:00 PM77 °FPartly sunny.7 mph65%29.83 "HgN/A
12:30 PM75 °FScattered clouds.6 mph74%29.83 "HgN/A
12:00 PM73 °FBroken clouds.8 mph74%29.83 "HgN/A
11:30 AM73 °FBroken clouds.9 mph69%29.83 "HgN/A
11:00 AM73 °FPartly sunny.7 mph69%29.83 "HgN/A
10:30 AM73 °FPartly sunny.8 mph74%29.83 "HgN/A
10:00 AM72 °FScattered clouds.8 mph78%29.83 "HgN/A
9:30 AM72 °FScattered clouds.10 mph83%29.83 "HgN/A
9:00 AM70 °FPartly sunny.10 mph83%29.83 "HgN/A
8:30 AM70 °FPartly sunny.9 mph83%29.80 "HgN/A
8:00 AM70 °FScattered clouds.8 mph88%29.83 "HgN/A
7:30 AM66 °FBroken clouds.6 mph100%29.80 "HgN/A
7:00 AM66 °FPartly sunny.7 mph100%29.80 "HgN/A
6:30 AM66 °FBroken clouds.6 mph100%29.80 "HgN/A
6:00 AM66 °FPartly cloudy.8 mph100%29.80 "HgN/A
Weather by CustomWeather, © 2014

See weather overviewHow to use our weather pages